FW8022 Weather Reports


Display with metric or nautical units.
time (UTC)temp
F
wind
direction
speed
MPH
gust
MPH
rain 1hr
in
rain 24hr
in
rain mn
in
humidity
%
barometer
mb
20240714142040 55 199 3.0 6.0 0.00 0.00 0.00 94 1015.8
20240714141540 55 175 2.0 6.0 0.00 0.00 0.00 95 1015.8
20240714141037 55 203 2.0 6.0 0.00 0.00 0.00 95 1015.7
20240714140540 55 160 1.0 4.0 0.00 0.00 0.00 95 1015.7
20240714140045 55 229 2.0 6.0 0.00 0.00 0.00 95 1015.6
20240714135537 55 182 3.0 6.0 0.00 0.00 0.00 95 1015.6
20240714135037 55 196 2.0 6.0 0.00 0.00 0.00 95 1015.6
20240714134540 55 211 3.0 7.0 0.00 0.00 0.00 95 1015.5
20240714134036 55 185 2.0 7.0 0.00 0.00 0.00 95 1015.4
20240714133538 55 175 2.0 5.0 0.00 0.00 0.00 95 1015.4
20240714133042 55 180 2.0 5.0 0.00 0.00 0.00 95 1015.3
20240714132536 55 166 3.0 8.0 0.00 0.00 0.00 95 1015.3
20240714132037 55 181 2.0 8.0 0.00 0.00 0.00 95 1015.3
20240714131539 55 184 3.0 8.0 0.00 0.00 0.00 95 1015.3
20240714131037 55 165 3.0 8.0 0.00 0.00 0.00 95 1015.2
20240714130538 55 168 4.0 8.0 0.00 0.00 0.00 95 1015.2
20240714130048 55 203 3.0 7.0 0.00 0.00 0.00 95 1015.2
20240714125537 55 175 4.0 7.0 0.00 0.00 0.00 95 1015.2
20240714125037 55 185 3.0 8.0 0.00 0.00 0.00 95 1015.2
20240714124539 55 155 4.0 8.0 0.00 0.00 0.00 95 1015.1
20240714124040 55 175 3.0 8.0 0.00 0.00 0.00 95 1015.0
20240714123539 55 181 3.0 10.0 0.00 0.00 0.00 95 1015.0
20240714123041 55 170 3.0 10.0 0.00 0.00 0.00 95 1014.9
20240714122536 55 173 4.0 9.0 0.00 0.00 0.00 95 1014.8
20240714122039 55 211 4.0 10.0 0.00 0.00 0.00 95 1014.9
20240714121545 55 196 5.0 10.0 0.00 0.00 0.00 95 1014.7
20240714121036 55 190 5.0 10.0 0.00 0.00 0.00 95 1014.8
20240714120537 55 175 4.0 10.0 0.00 0.00 0.00 95 1014.7
20240714120042 55 209 4.0 10.0 0.00 0.00 0.00 95 1014.7
20240714115537 55 171 5.0 10.0 0.00 0.00 0.00 95 1014.6
20240714115040 55 175 3.0 9.0 0.00 0.00 0.00 95 1014.6
20240714114550 55 174 3.0 9.0 0.00 0.00 0.00 95 1014.5
20240714114037 55 169 4.0 8.0 0.00 0.00 0.00 95 1014.4
20240714113537 55 186 3.0 9.0 0.00 0.00 0.00 95 1014.3
20240714113040 55 192 4.0 9.0 0.00 0.00 0.00 95 1014.2
20240714112536 55 185 3.0 9.0 0.00 0.00 0.00 95 1014.1
20240714112039 55 195 4.0 9.0 0.00 0.00 0.00 95 1014.1
20240714111544 55 178 4.0 7.0 0.00 0.00 0.00 95 1014.1
20240714111037 55 178 3.0 7.0 0.00 0.00 0.00 95 1014.0
20240714110537 55 220 2.0 8.0 0.00 0.00 0.00 95 1013.9
20240714110045 55 150 4.0 8.0 0.00 0.00 0.00 95 1013.9
20240714105537 55 173 4.0 9.0 0.00 0.00 0.00 95 1013.8
20240714105039 55 211 4.0 9.0 0.00 0.00 0.00 95 1013.7
20240714104556 55 181 4.0 9.0 0.00 0.00 0.00 95 1013.6
20240714104041 55 196 3.0 9.0 0.00 0.00 0.00 95 1013.5
20240714103541 55 173 5.0 9.0 0.00 0.00 0.00 95 1013.5
20240714103042 55 207 4.0 9.0 0.00 0.00 0.00 95 1013.5
20240714102539 55 202 4.0 9.0 0.00 0.00 0.00 95 1013.5
20240714102040 55 209 5.0 11.0 0.00 0.00 0.00 95 1013.5
20240714101544 55 158 5.0 11.0 0.00 0.00 0.00 95 1013.4
20240714101041 55 169 5.0 11.0 0.00 0.00 0.00 95 1013.4
20240714100538 55 188 4.0 9.0 0.00 0.00 0.00 94 1013.4
20240714100101 55 187 3.0 9.0 0.00 0.00 0.00 95 1013.4
20240714095540 55 188 4.0 8.0 0.00 0.00 0.00 95 1013.4
20240714095040 55 202 4.0 8.0 0.00 0.00 0.00 95 1013.3
20240714094548 55 204 4.0 8.0 0.00 0.00 0.00 94 1013.3
20240714094039 56 198 4.0 8.0 0.00 0.00 0.00 94 1013.4
20240714093543 56 215 4.0 8.0 0.00 0.00 0.00 94 1013.4
20240714093048 56 202 3.0 7.0 0.00 0.00 0.00 94 1013.4
20240714092542 56 221 3.0 6.0 0.00 0.00 0.00 94 1013.4
20240714092039 56 182 2.0 6.0 0.00 0.00 0.00 94 1013.3
20240714091539 56 232 2.0 7.0 0.00 0.00 0.00 94 1013.4
20240714091039 56 173 3.0 7.0 0.00 0.00 0.00 94 1013.3
20240714090539 56 211 1.0 5.0 0.00 0.00 0.00 94 1013.3
20240714090042 56 181 2.0 5.0 0.00 0.00 0.00 94 1013.4
20240714085542 56 194 2.0 5.0 0.00 0.00 0.00 94 1013.4
20240714085040 56 217 2.0 4.0 0.00 0.00 0.00 94 1013.4
20240714084541 56 230 1.0 3.0 0.00 0.00 0.00 94 1013.4
20240714084040 56 197 1.0 3.0 0.00 0.00 0.00 94 1013.4
20240714083538 56 236 1.0 3.0 0.00 0.00 0.00 94 1013.4
20240714083041 56 0 0.0 2.0 0.00 0.00 0.00 94 1013.4
20240714082542 56 244 0.0 2.0 0.00 0.00 0.00 94 1013.5
20240714082039 56 0 0.0 2.0 0.00 0.00 0.00 94 1013.5
20240714081544 56 244 0.0 2.0 0.00 0.00 0.00 94 1013.5
20240714081037 56 0 0.0 3.0 0.00 0.00 0.00 94 1013.5
20240714080538 56 199 1.0 3.0 0.00 0.00 0.00 94 1013.4
20240714080044 56 195 1.0 4.0 0.00 0.00 0.00 94 1013.4
20240714075537 56 200 2.0 5.0 0.00 0.00 0.00 94 1013.4
20240714075038 56 194 2.0 5.0 0.00 0.00 0.00 94 1013.4
20240714074547 56 193 2.0 5.0 0.00 0.00 0.00 94 1013.4
20240714074039 56 211 2.0 5.0 0.00 0.00 0.00 94 1013.2
20240714073538 56 206 2.0 5.0 0.00 0.00 0.00 94 1013.4
20240714073041 56 169 1.0 5.0 0.00 0.00 0.00 94 1013.4
20240714072543 56 209 2.0 5.0 0.00 0.00 0.00 94 1013.4
20240714072040 56 0 1.0 5.0 0.00 0.00 0.00 94 1013.4
20240714071542 56 192 2.0 6.0 0.00 0.00 0.00 94 1013.4
20240714071036 56 221 2.0 6.0 0.00 0.00 0.00 93 1013.4
20240714070539 56 222 3.0 5.0 0.00 0.00 0.00 93 1013.4
20240714070045 56 216 2.0 5.0 0.00 0.00 0.00 93 1013.3
20240714065538 56 232 2.0 5.0 0.00 0.00 0.00 93 1013.2
20240714065038 56 205 2.0 5.0 0.00 0.00 0.00 93 1013.3
20240714064540 56 189 0.0 7.0 0.00 0.00 0.00 93 1013.3
20240714064038 56 205 2.0 7.0 0.00 0.00 0.00 93 1013.3
20240714063541 56 196 2.0 6.0 0.00 0.00 0.00 93 1013.3
20240714063041 56 167 2.0 5.0 0.00 0.00 0.00 93 1013.4
20240714062540 56 214 2.0 5.0 0.00 0.00 0.00 93 1013.4
20240714062038 56 211 1.0 5.0 0.00 0.00 0.00 93 1013.4
20240714061539 56 209 1.0 6.0 0.00 0.00 0.00 93 1013.5
20240714061042 56 221 3.0 6.0 0.00 0.00 0.00 93 1013.6
20240714060538 56 253 1.0 3.0 0.00 0.00 0.00 93 1013.6
20240714060044 56 252 0.0 3.0 0.00 0.00 0.00 93 1013.6
20240714055540 56 280 0.0 4.0 0.00 0.00 0.00 93 1013.5
20240714055038 56 191 1.0 4.0 0.00 0.00 0.00 93 1013.6
20240714054539 56 266 0.0 3.0 0.00 0.00 0.00 93 1013.7
20240714054039 56 0 0.0 5.0 0.00 0.00 0.00 93 1013.7
20240714053538 56 0 0.0 5.0 0.00 0.00 0.00 93 1013.7
20240714053039 56 211 2.0 5.0 0.00 0.00 0.00 93 1013.8
20240714052538 56 209 0.0 4.0 0.00 0.00 0.00 93 1013.8
20240714052038 56 0 0.0 4.0 0.00 0.00 0.00 93 1013.8
20240714051541 56 292 0.0 3.0 0.00 0.00 0.00 93 1013.8
20240714051039 56 205 0.0 3.0 0.00 0.00 0.00 93 1014.0
20240714050539 56 197 0.0 5.0 0.00 0.00 0.00 93 1014.1
20240714050044 56 204 0.0 5.0 0.00 0.00 0.00 93 1014.1
20240714045538 56 190 2.0 5.0 0.00 0.00 0.00 93 1014.1
20240714045038 56 233 2.0 5.0 0.00 0.00 0.00 93 1014.0
20240714044540 56 196 2.0 5.0 0.00 0.00 0.00 92 1013.9
20240714044039 56 179 2.0 5.0 0.00 0.00 0.00 92 1014.0
20240714043538 56 198 1.0 5.0 0.00 0.00 0.00 92 1013.9
20240714043037 56 194 1.0 6.0 0.00 0.00 0.00 92 1014.0
20240714042537 56 172 2.0 6.0 0.00 0.00 0.00 92 1014.0
20240714042038 56 180 3.0 6.0 0.00 0.00 0.00 92 1013.9
20240714041545 56 165 2.0 6.0 0.00 0.00 0.00 92 1013.9
20240714041037 57 207 2.0 5.0 0.00 0.00 0.00 92 1013.9
20240714040540 57 178 2.0 6.0 0.00 0.00 0.00 92 1013.7
20240714040049 56 196 2.0 6.0 0.00 0.00 0.00 92 1013.6
20240714035539 57 205 3.0 5.0 0.00 0.00 0.00 92 1013.6
20240714035039 57 220 2.0 6.0 0.00 0.00 0.00 92 1013.6
20240714034539 57 215 2.0 8.0 0.00 0.00 0.00 92 1013.6
20240714034042 57 196 4.0 8.0 0.00 0.00 0.00 92 1013.6
20240714033538 57 182 3.0 6.0 0.00 0.00 0.00 92 1013.5
20240714033049 57 196 3.0 6.0 0.00 0.00 0.00 92 1013.5
20240714032538 57 223 2.0 6.0 0.00 0.00 0.00 92 1013.5
20240714032039 57 161 3.0 9.0 0.00 0.00 0.00 92 1013.5
20240714031544 57 187 3.0 9.0 0.00 0.00 0.00 92 1013.4
20240714031039 57 217 4.0 9.0 0.00 0.00 0.00 92 1013.3
20240714030539 57 211 3.0 9.0 0.00 0.00 0.00 92 1013.3
20240714030050 57 187 4.0 9.0 0.00 0.00 0.00 92 1013.2
20240714025538 57 212 5.0 9.0 0.00 0.00 0.00 91 1013.2
20240714025038 57 232 4.0 9.0 0.00 0.00 0.00 91 1013.2
20240714024556 57 190 5.0 9.0 0.00 0.00 0.00 91 1013.0
20240714024042 57 208 4.0 9.0 0.00 0.00 0.00 91 1013.1
20240714023540 57 235 5.0 9.0 0.00 0.00 0.00 91 1013.1
20240714023047 57 181 4.0 9.0 0.00 0.00 0.00 91 1013.1
20240714022537 57 185 5.0 9.0 0.00 0.00 0.00 91 1013.1
20240714022037 57 188 4.0 9.0 0.00 0.00 0.00 91 1013.1
20240714021543 57 220 4.0 9.0 0.00 0.00 0.00 90 1013.1
20240714021039 57 145 4.0 7.0 0.00 0.00 0.00 90 1013.1
20240714020538 57 196 4.0 7.0 0.00 0.00 0.00 90 1013.1
20240714020041 57 228 3.0 8.0 0.00 0.00 0.00 90 1013.0
20240714015539 58 189 3.0 8.0 0.00 0.00 0.00 90 1013.0
20240714015040 58 187 4.0 11.0 0.00 0.00 0.00 90 1012.9
20240714014539 58 221 4.0 11.0 0.00 0.00 0.00 89 1012.8
20240714014039 58 214 6.0 10.0 0.00 0.00 0.00 89 1012.7
20240714013539 58 192 5.0 10.0 0.00 0.00 0.00 90 1012.7
20240714013041 58 202 5.0 11.0 0.00 0.00 0.00 89 1012.7
20240714012538 58 232 5.0 11.0 0.00 0.00 0.00 89 1012.5
20240714012040 58 229 5.0 11.0 0.00 0.00 0.00 89 1012.4
20240714011549 58 181 5.0 11.0 0.00 0.00 0.00 89 1012.3
20240714011039 58 195 7.0 11.0 0.00 0.00 0.00 88 1012.4
20240714010536 58 197 6.0 11.0 0.00 0.00 0.00 88 1012.4
20240714010102 59 177 4.0 9.0 0.00 0.00 0.00 87 1012.4
20240714005539 59 217 2.0 9.0 0.00 0.00 0.00 86 1012.4
20240714005042 60 183 3.0 7.0 0.00 0.00 0.00 86 1012.3
20240714004547 60 214 3.0 9.0 0.00 0.00 0.00 86 1012.3
20240714004042 60 250 2.0 9.0 0.00 0.00 0.00 86 1012.2
20240714003538 60 182 2.0 12.0 0.00 0.00 0.00 88 1012.2
20240714003044 59 192 5.0 13.0 0.00 0.00 0.00 87 1012.3
20240714002538 59 219 8.0 13.0 0.00 0.00 0.00 87 1012.4
20240714002038 59 197 8.0 13.0 0.00 0.00 0.00 86 1012.3
20240714001544 60 209 7.0 13.0 0.00 0.00 0.00 86 1012.5
20240714001039 60 203 4.0 9.0 0.00 0.00 0.00 86 1012.7
20240714000539 60 266 3.0 9.0 0.00 0.00 0.00 86 1012.7
20240714000044 60 193 3.0 12.0 0.00 0.00 0.00 85 1012.9
20240713235539 60 229 3.0 12.0 0.00 0.00 0.00 86 1012.9
20240713235039 60 209 4.0 15.0 0.00 0.00 0.00 87 1012.8
20240713234553 59 197 7.0 15.0 0.00 0.00 0.00 87 1012.6
20240713234038 59 211 7.0 14.0 0.00 0.00 0.00 86 1012.5
20240713233538 60 182 6.0 13.0 0.00 0.00 0.00 87 1012.5
20240713233044 60 156 7.0 12.0 0.00 0.00 0.00 86 1012.7
20240713232538 60 195 7.0 14.0 0.00 0.00 0.00 86 1012.6
20240713232039 60 232 6.0 14.0 0.00 0.00 0.00 86 1012.7
20240713231603 60 185 6.0 12.0 0.00 0.00 0.00 86 1012.8
20240713231037 60 209 6.0 13.0 0.00 0.00 0.00 86 1012.7
20240713230538 60 167 8.0 13.0 0.00 0.00 0.00 85 1012.8
20240713230041 60 168 6.0 11.0 0.00 0.00 0.00 86 1012.8
20240713225538 60 150 7.0 12.0 0.00 0.00 0.00 85 1012.7
20240713225038 61 182 5.0 14.0 0.00 0.00 0.00 84 1012.7
20240713224548 61 137 6.0 14.0 0.00 0.00 0.00 83 1012.6
20240713224041 62 195 5.0 10.0 0.00 0.00 0.00 80 1012.5
20240713223538 64 226 3.0 9.0 0.00 0.00 0.00 80 1012.5
20240713223048 63 198 4.0 9.0 0.00 0.00 0.00 79 1012.7
20240713222537 63 225 2.0 10.0 0.00 0.00 0.00 81 1012.5
20240713222037 62 186 3.0 12.0 0.00 0.00 0.00 83 1012.7
20240713221539 61 190 5.0 12.0 0.00 0.00 0.00 84 1012.8
20240713221043 61 184 6.0 15.0 0.00 0.00 0.00 84 1012.9
20240713220538 61 190 6.0 15.0 0.00 0.00 0.00 84 1012.9
20240713220054 61 200 5.0 11.0 0.00 0.00 0.00 84 1012.9
20240713215538 61 251 6.0 11.0 0.00 0.00 0.00 84 1012.9
20240713215038 61 210 6.0 11.0 0.00 0.00 0.00 83 1012.9
20240713214542 61 213 5.0 11.0 0.00 0.00 0.00 82 1012.9
20240713214040 61 246 4.0 11.0 0.00 0.00 0.00 81 1013.0
20240713213537 62 211 4.0 11.0 0.00 0.00 0.00 81 1013.0
20240713213042 63 176 3.0 10.0 0.00 0.00 0.00 80 1012.8
20240713212538 64 188 4.0 10.0 0.00 0.00 0.00 78 1012.8
20240713212038 64 266 2.0 10.0 0.00 0.00 0.00 82 1012.8
20240713211545 63 168 2.0 11.0 0.00 0.00 0.00 83 1012.6
20240713211037 60 178 5.0 11.0 0.00 0.00 0.00 84 1012.7
20240713210537 60 199 6.0 11.0 0.00 0.00 0.00 84 1012.7
20240713210048 60 229 5.0 12.0 0.00 0.00 0.00 85 1012.7
20240713205542 60 229 6.0 14.0 0.00 0.00 0.00 85 1012.7
20240713205038 60 163 5.0 14.0 0.00 0.00 0.00 85 1012.7
20240713204541 60 241 6.0 13.0 0.00 0.00 0.00 85 1012.5
20240713204038 61 230 6.0 11.0 0.00 0.00 0.00 84 1012.7
20240713203538 61 181 5.0 11.0 0.00 0.00 0.00 84 1012.6
20240713203044 61 219 4.0 11.0 0.00 0.00 0.00 84 1012.7
20240713202536 60 163 5.0 11.0 0.00 0.00 0.00 84 1012.8
20240713202044 61 189 5.0 10.0 0.00 0.00 0.00 84 1012.7
20240713201544 61 215 5.0 9.0 0.00 0.00 0.00 84 1012.8
20240713201039 61 232 4.0 9.0 0.00 0.00 0.00 84 1012.7
20240713200538 60 215 4.0 9.0 0.00 0.00 0.00 84 1012.8
20240713200054 61 215 4.0 8.0 0.00 0.00 0.00 84 1012.8
20240713195538 61 227 4.0 8.0 0.00 0.00 0.00 84 1012.8
20240713195042 61 164 4.0 9.0 0.00 0.00 0.00 85 1012.8
20240713194536 60 188 4.0 9.0 0.00 0.00 0.00 85 1012.7
20240713194038 61 206 4.0 9.0 0.00 0.00 0.00 84 1012.7
20240713193538 61 226 2.0 10.0 0.00 0.00 0.00 85 1012.6
20240713193039 60 259 3.0 11.0 0.00 0.00 0.00 87 1012.5
20240713192538 59 205 5.0 11.0 0.00 0.00 0.00 86 1012.7
20240713192040 59 252 5.0 13.0 0.00 0.00 0.00 87 1012.5
20240713191544 59 191 6.0 13.0 0.00 0.00 0.00 87 1012.4
20240713191037 59 221 6.0 13.0 0.00 0.00 0.00 87 1012.4
20240713190538 60 199 4.0 11.0 0.00 0.00 0.00 87 1012.4
20240713190045 59 219 6.0 11.0 0.00 0.00 0.00 87 1012.5
20240713185537 59 242 6.0 11.0 0.00 0.00 0.00 88 1012.4
20240713185037 59 194 5.0 11.0 0.00 0.00 0.00 88 1012.2
20240713184552 59 187 5.0 10.0 0.00 0.00 0.00 88 1012.3
20240713184038 58 175 5.0 11.0 0.00 0.00 0.00 89 1012.4
20240713183541 58 217 5.0 12.0 0.00 0.00 0.00 89 1012.4
20240713183038 58 215 6.0 12.0 0.00 0.00 0.00 88 1012.3
20240713182539 58 205 5.0 12.0 0.00 0.00 0.00 88 1012.4
20240713182037 59 200 5.0 11.0 0.00 0.00 0.00 88 1012.3
20240713181543 59 224 5.0 11.0 0.00 0.00 0.00 88 1012.3
20240713181037 58 211 5.0 12.0 0.00 0.00 0.00 89 1012.3
20240713180538 58 166 6.0 12.0 0.00 0.00 0.00 88 1012.3
20240713180045 59 202 3.0 7.0 0.00 0.00 0.00 88 1012.1
20240713175542 59 190 3.0 8.0 0.00 0.00 0.00 89 1011.9
20240713175038 58 225 4.0 8.0 0.00 0.00 0.00 90 1012.0
20240713174542 58 221 3.0 8.0 0.00 0.00 0.00 90 1012.1
20240713174038 57 223 3.0 8.0 0.00 0.00 0.00 90 1012.0
20240713173537 57 195 2.0 8.0 0.00 0.00 0.00 89 1012.0
20240713173041 58 223 3.0 5.0 0.00 0.00 0.00 89 1012.2
20240713172537 58 226 1.0 5.0 0.00 0.00 0.00 89 1012.2
20240713172040 58 204 3.0 5.0 0.00 0.00 0.00 89 1012.2
20240713171545 59 180 2.0 5.0 0.00 0.00 0.00 89 1012.3
20240713171038 59 199 1.0 5.0 0.00 0.00 0.00 90 1012.2
20240713170537 59 203 1.0 5.0 0.00 0.00 0.00 90 1012.2
20240713170038 59 205 1.0 5.0 0.00 0.00 0.00 90 1012.1
20240713165536 59 254 1.0 6.0 0.00 0.00 0.00 91 1012.1
20240713165040 59 262 2.0 6.0 0.00 0.00 0.00 92 1012.3
20240713164547 58 242 1.0 3.0 0.00 0.00 0.00 93 1012.4
20240713164037 58 261 0.0 4.0 0.00 0.00 0.00 94 1012.3
20240713163537 57 196 0.0 4.0 0.00 0.00 0.00 94 1012.2
20240713163050 57 209 3.0 6.0 0.00 0.00 0.00 95 1012.2
20240713162536 56 161 1.0 6.0 0.00 0.00 0.00 95 1012.0
20240713162040 56 227 1.0 5.0 0.00 0.00 0.00 95 1011.7
20240713161546 56 211 2.0 5.0 0.00 0.00 0.00 95 1011.6
20240713161038 56 184 0.0 8.0 0.00 0.00 0.00 95 1011.7
20240713160541 55 150 2.0 8.0 0.00 0.00 0.00 95 1011.8
20240713160040 55 213 3.0 7.0 0.00 0.00 0.00 96 1011.8
20240713155537 55 218 1.0 3.0 0.00 0.00 0.00 96 1011.8
20240713155038 55 228 1.0 4.0 0.00 0.00 0.00 96 1011.7
20240713154544 55 0 1.0 5.0 0.00 0.00 0.00 96 1011.8
20240713154038 55 329 0.0 7.0 0.00 0.00 0.00 96 1011.8
20240713153537 54 199 3.0 7.0 0.00 0.00 0.00 96 1011.8
20240713153038 54 230 3.0 8.0 0.00 0.00 0.00 96 1011.6
20240713152537 54 209 4.0 8.0 0.00 0.00 0.00 96 1011.6
20240713152040 55 202 3.0 7.0 0.00 0.00 0.00 96 1011.4
20240713151539 55 250 3.0 6.0 0.00 0.00 0.00 96 1011.3
20240713151041 54 0 1.0 6.0 0.00 0.00 0.00 96 1011.4
20240713150537 54 197 2.0 6.0 0.00 0.00 0.00 96 1011.4
20240713150043 54 240 0.0 7.0 0.00 0.00 0.00 96 1011.2
20240713145538 54 178 3.0 7.0 0.00 0.00 0.00 96 1011.4
20240713145038 54 194 1.0 4.0 0.00 0.00 0.00 96 1011.3
20240713144541 54 178 2.0 4.0 0.00 0.00 0.00 96 1011.3
20240713144040 54 189 2.0 4.0 0.00 0.00 0.00 96 1011.1
20240713143538 55 270 2.0 5.0 0.00 0.00 0.00 96 1010.9
20240713143043 55 0 1.0 5.0 0.00 0.00 0.00 96 1010.8
20240713142538 54 57 2.0 5.0 0.00 0.00 0.00 96 1010.7